Location: Bucquoy
(50.1391°N, 2.7097°E)
Time: 03:27:48
(UTC+00:00)

MSX - Pass Details

Date: 06 May 2021
Orbit: 895 x 905 km, 98.8° (Epoch: 22 June)

Event Time Altitude Azimuth Distance (km) Brightness Sun altitude
Rises 03:31:57 0° 12° (NNE) 3,539 7.8 -6.9°
Reaches altitude 10° 03:34:23 10° 9° (N) 2,596 7.0 -6.6°
Maximum altitude 03:40:03 59° 292° (WNW) 1,041 4.1 -5.8°
Drops below altitude 10° 03:45:42 10° 214° (SW) 2,583 5.7 -5.1°
Enters shadow 03:47:33 - 211° (SSW) 3,294 6.2 -4.8°
